TimeEDT,TemperatureF,Dew PointF,Humidity,Sea Level PressureIn,VisibilityMPH,Wind Direction,Wind SpeedMPH,Gust SpeedMPH,PrecipitationIn,Events,Conditions,WindDirDegrees,DateUTC
12:55 AM,59.0,57.9,96,30.13,7.0,Calm,Calm,-,N/A,,Clear,0,2012-10-25 04:55:00
1:55 AM,58.8,57.4,95,30.14,6.0,Calm,Calm,-,N/A,,Clear,0,2012-10-25 05:55:00
2:55 AM,59.9,57.9,93,30.13,10.0,Calm,Calm,-,N/A,,Clear,0,2012-10-25 06:55:00
3:55 AM,57.6,56.3,96,30.12,10.0,Calm,Calm,-,N/A,,Clear,0,2012-10-25 07:55:00
4:55 AM,58.5,57.0,95,30.13,10.0,Calm,Calm,-,N/A,,Clear,0,2012-10-25 08:55:00
5:55 AM,56.5,55.4,96,30.13,9.0,Calm,Calm,-,N/A,,Clear,0,2012-10-25 09:55:00
6:55 AM,56.1,55.8,99,30.14,7.0,Calm,Calm,-,N/A,,Clear,0,2012-10-25 10:55:00
7:55 AM,56.8,56.3,98,30.16,2.0,Calm,Calm,-,N/A,,Clear,0,2012-10-25 11:55:00
8:04 AM,57.2,57.2,100,30.16,0.8,Calm,Calm,-,N/A,,Partly Cloudy,0,2012-10-25 12:04:00
8:13 AM,59.0,59.0,100,30.17,0.1,Calm,Calm,-,N/A,Fog,Fog,0,2012-10-25 12:13:00
8:28 AM,60.8,60.8,100,30.17,0.1,ESE,4.6,-,N/A,Fog,Fog,110,2012-10-25 12:28:00
8:52 AM,62.6,62.6,100,30.18,0.2,ENE,3.5,-,N/A,Fog,Fog,70,2012-10-25 12:52:00
8:55 AM,62.6,62.1,98,30.18,0.2,East,4.6,-,N/A,Fog,Fog,80,2012-10-25 12:55:00
9:09 AM,62.6,62.6,100,30.18,0.5,ENE,4.6,-,N/A,Fog,Fog,60,2012-10-25 13:09:00
9:14 AM,62.6,62.6,100,30.18,0.8,East,4.6,-,N/A,,Mist,80,2012-10-25 13:14:00
9:18 AM,62.6,62.6,100,30.18,1.0,ENE,5.8,-,N/A,,Mist,60,2012-10-25 13:18:00
9:24 AM,64.4,62.6,94,30.18,2.0,ENE,4.6,-,N/A,,Overcast,70,2012-10-25 13:24:00
9:33 AM,64.4,62.6,94,30.16,3.0,ENE,6.9,-,N/A,,Mostly Cloudy,60,2012-10-25 13:33:00
9:42 AM,66.2,62.6,88,30.18,10.0,ENE,6.9,-,N/A,,Scattered Clouds,70,2012-10-25 13:42:00
9:55 AM,67.3,63.3,87,30.18,10.0,East,6.9,-,N/A,,Partly Cloudy,90,2012-10-25 13:55:00
10:55 AM,70.9,62.8,75,30.19,10.0,Variable,5.8,-,N/A,,Clear,0,2012-10-25 14:55:00
11:55 AM,72.7,61.7,68,30.19,10.0,East,6.9,-,N/A,,Clear,90,2012-10-25 15:55:00
12:55 PM,73.2,61.5,67,30.17,10.0,East,6.9,-,N/A,,Clear,90,2012-10-25 16:55:00
1:55 PM,73.9,62.2,67,30.15,10.0,East,9.2,-,N/A,,Clear,80,2012-10-25 17:55:00
2:55 PM,73.8,61.7,66,30.15,10.0,ENE,9.2,-,N/A,,Clear,70,2012-10-25 18:55:00
3:55 PM,72.9,62.6,70,30.15,10.0,ENE,6.9,-,N/A,,Clear,60,2012-10-25 19:55:00
4:55 PM,71.6,62.1,72,30.15,10.0,East,8.1,-,N/A,,Clear,80,2012-10-25 20:55:00
5:55 PM,68.5,62.6,81,30.16,10.0,East,5.8,-,N/A,,Clear,90,2012-10-25 21:55:00
6:55 PM,66.4,63.0,89,30.17,10.0,East,4.6,-,N/A,,Clear,90,2012-10-25 22:55:00
7:46 PM,66.2,62.6,88,30.17,10.0,East,5.8,-,N/A,,Mostly Cloudy,90,2012-10-25 23:46:00
7:55 PM,65.7,62.1,88,30.17,10.0,East,5.8,-,N/A,,Mostly Cloudy,100,2012-10-25 23:55:00
8:55 PM,65.8,62.1,88,30.17,10.0,ESE,3.5,-,N/A,,Mostly Cloudy,110,2012-10-26 00:55:00
9:20 PM,66.2,62.6,88,30.17,10.0,ESE,6.9,-,N/A,,Overcast,110,2012-10-26 01:20:00
9:55 PM,66.4,63.3,90,30.16,10.0,East,9.2,-,N/A,,Overcast,90,2012-10-26 01:55:00
10:55 PM,66.0,63.5,92,30.15,10.0,East,5.8,-,N/A,,Overcast,90,2012-10-26 02:55:00
11:12 PM,66.2,64.4,94,30.15,10.0,East,5.8,-,N/A,,Overcast,90,2012-10-26 03:12:00
11:32 PM,66.2,64.4,94,30.15,10.0,East,8.1,-,N/A,,Overcast,90,2012-10-26 03:32:00
11:45 PM,66.2,64.4,94,30.14,10.0,East,5.8,-,N/A,,Overcast,100,2012-10-26 03:45:00
11:55 PM,65.7,63.7,93,30.15,9.0,ESE,6.9,-,N/A,,Overcast,110,2012-10-26 03:55:00